[Date Prev][Date Next][Thread Prev][Thread Next] - [Date Index][Thread Index][Author Index]

2 Line ISS Keps 5-20



ISS
1 25544U 98067A   04141.19151127  .00011585  00000-0  10639-3 0  8167
2 25544  51.6309 108.3874 0005927 129.7180 350.3672 15.68221973313926


----
Via the sarex mailing list at AMSAT.ORG courtesy of AMSAT-NA.
To unsubscribe, send "unsubscribe sarex" to Majordomo@amsat.org



AMSAT Top AMSAT Home